CFI102 ZGHA-ZGHA

Flight info

Callsign CFI102
Flight time 0h 14m
Altitude 3000
Route LOCAL
Aircraft C750/M-SBDE3FGHRWXY/S

Departure

Time 2026-05-07 16:18
Airport Changsha Huanghua International Airport (ZGHA)

Arrival

Time 2026-05-07 16:33
Airport Changsha Huanghua International Airport (ZGHA)
Time Latitude Longitude Altitude Speed Heading
2026-05-07 15:15 28.20189 113.21462 197 ft 0 kts 266°
2026-05-07 16:05 28.20188 113.21455 207 ft 3 kts 262°
2026-05-07 16:05 28.20167 113.21445 197 ft 5 kts 184°
2026-05-07 16:06 28.20124 113.21448 197 ft 6 kts 176°
2026-05-07 16:06 28.20086 113.21451 198 ft 5 kts 176°
2026-05-07 16:06 28.20057 113.21459 202 ft 4 kts 142°
2026-05-07 16:06 28.20049 113.21499 198 ft 7 kts 89°
2026-05-07 16:07 28.20053 113.21556 197 ft 7 kts 86°
2026-05-07 16:07 28.20056 113.21615 207 ft 8 kts 85°
2026-05-07 16:07 28.20058 113.21646 203 ft 0 kts 85°
2026-05-07 16:07 28.20060 113.21664 196 ft 6 kts 85°
2026-05-07 16:08 28.20051 113.21706 200 ft 5 kts 135°
2026-05-07 16:08 28.20016 113.21717 202 ft 6 kts 176°
2026-05-07 16:08 28.19967 113.21720 206 ft 10 kts 176°
2026-05-07 16:08 28.19889 113.21726 197 ft 11 kts 177°
2026-05-07 16:09 28.19817 113.21730 202 ft 10 kts 176°
2026-05-07 16:09 28.19756 113.21734 205 ft 8 kts 177°
2026-05-07 16:09 28.19702 113.21737 203 ft 8 kts 177°
2026-05-07 16:09 28.19654 113.21741 206 ft 6 kts 176°
2026-05-07 16:10 28.19603 113.21745 200 ft 10 kts 176°
2026-05-07 16:10 28.19531 113.21750 201 ft 10 kts 177°
2026-05-07 16:10 28.19469 113.21753 202 ft 8 kts 178°
2026-05-07 16:10 28.19417 113.21756 202 ft 7 kts 178°
2026-05-07 16:11 28.19364 113.21758 203 ft 7 kts 176°
2026-05-07 16:11 28.19311 113.21762 203 ft 8 kts 176°
2026-05-07 16:11 28.19257 113.21765 204 ft 9 kts 176°
2026-05-07 16:11 28.19170 113.21771 204 ft 15 kts 177°
2026-05-07 16:12 28.19070 113.21776 209 ft 14 kts 177°
2026-05-07 16:12 28.19000 113.21780 206 ft 9 kts 177°
2026-05-07 16:12 28.18988 113.21781 206 ft 0 kts 177°
2026-05-07 16:12 28.18972 113.21782 213 ft 6 kts 176°
2026-05-07 16:13 28.18901 113.21786 212 ft 14 kts 177°
2026-05-07 16:13 28.18810 113.21792 207 ft 12 kts 177°
2026-05-07 16:13 28.18729 113.21797 213 ft 11 kts 177°
2026-05-07 16:13 28.18634 113.21803 210 ft 18 kts 177°
2026-05-07 16:14 28.18512 113.21810 210 ft 17 kts 177°
2026-05-07 16:14 28.18400 113.21817 211 ft 15 kts 176°
2026-05-07 16:14 28.18299 113.21824 212 ft 14 kts 176°
2026-05-07 16:14 28.18210 113.21830 213 ft 13 kts 176°
2026-05-07 16:15 28.18090 113.21838 214 ft 21 kts 176°
2026-05-07 16:15 28.17974 113.21843 215 ft 16 kts 178°
2026-05-07 16:15 28.17861 113.21850 217 ft 19 kts 177°
2026-05-07 16:15 28.17750 113.21886 219 ft 12 kts 126°
2026-05-07 16:16 28.17748 113.21960 220 ft 7 kts 93°
2026-05-07 16:16 28.17753 113.22017 219 ft 12 kts 83°
2026-05-07 16:16 28.17768 113.22148 214 ft 19 kts 88°
2026-05-07 16:16 28.17799 113.22274 198 ft 17 kts 69°
2026-05-07 16:17 28.17807 113.22316 193 ft 0 kts 85°
2026-05-07 16:17 28.17807 113.22325 193 ft 6 kts 85°
2026-05-07 16:17 28.17821 113.22414 190 ft 15 kts 52°
2026-05-07 16:17 28.17867 113.22429 195 ft 0 kts 356°
2026-05-07 16:18 28.17873 113.22428 190 ft 9 kts 356°
2026-05-07 16:18 28.18319 113.22401 198 ft 120 kts 357°
2026-05-07 16:18 28.19325 113.22344 403 ft 159 kts 357°
2026-05-07 16:18 28.20513 113.22321 855 ft 183 kts
2026-05-07 16:19 28.21864 113.22427 1346 ft 200 kts
2026-05-07 16:19 28.23173 113.22520 2129 ft 185 kts
2026-05-07 16:19 28.24074 113.22572 2169 ft 203 kts
2026-05-07 16:19 28.25375 113.22990 2370 ft 199 kts 34°
2026-05-07 16:20 28.26205 113.24917 1857 ft 214 kts 85°
2026-05-07 16:20 28.26139 113.26012 2011 ft 201 kts 89°
2026-05-07 16:20 28.25993 113.28187 2019 ft 211 kts 87°
2026-05-07 16:20 28.25979 113.29297 2018 ft 206 kts 86°
2026-05-07 16:21 28.25964 113.31452 2017 ft 207 kts 86°
2026-05-07 16:21 28.25960 113.33094 2014 ft 209 kts 86°
2026-05-07 16:21 28.25956 113.34730 2010 ft 206 kts 85°
2026-05-07 16:21 28.25854 113.35824 1970 ft 213 kts 101°
2026-05-07 16:22 28.24904 113.37141 1923 ft 227 kts 144°
2026-05-07 16:22 28.23343 113.37526 1986 ft 233 kts 174°
2026-05-07 16:22 28.21696 113.37565 2044 ft 239 kts 176°
2026-05-07 16:22 28.20043 113.37614 2041 ft 237 kts 176°
2026-05-07 16:23 28.18390 113.37505 2036 ft 238 kts 184°
2026-05-07 16:23 28.16741 113.37289 2038 ft 238 kts 185°
2026-05-07 16:23 28.15100 113.37139 2014 ft 238 kts 180°
2026-05-07 16:23 28.13442 113.37088 2016 ft 238 kts 179°
2026-05-07 16:24 28.11788 113.37046 2001 ft 237 kts 179°
2026-05-07 16:24 28.10130 113.36984 2014 ft 241 kts 180°
2026-05-07 16:24 28.08466 113.36908 2015 ft 237 kts 180°
2026-05-07 16:24 28.06829 113.36840 2009 ft 234 kts 180°
2026-05-07 16:25 28.05190 113.36774 1991 ft 236 kts 180°
2026-05-07 16:25 28.03547 113.36707 1995 ft 237 kts 180°
2026-05-07 16:25 28.01895 113.36640 2004 ft 238 kts 180°
2026-05-07 16:25 28.00243 113.36574 2002 ft 237 kts 180°
2026-05-07 16:26 27.98595 113.36508 2006 ft 237 kts 180°
2026-05-07 16:26 27.96959 113.36360 1970 ft 233 kts 191°
2026-05-07 16:26 27.95597 113.35444 1938 ft 229 kts 228°
2026-05-07 16:26 27.94854 113.33889 1973 ft 225 kts 259°
2026-05-07 16:27 27.94721 113.32164 2021 ft 220 kts 271°
2026-05-07 16:27 27.94650 113.30423 2012 ft 222 kts 272°
2026-05-07 16:27 27.94566 113.28681 2008 ft 222 kts 271°
2026-05-07 16:27 27.94490 113.26980 2002 ft 216 kts 274°
2026-05-07 16:28 27.94831 113.25390 1961 ft 205 kts 304°
2026-05-07 16:28 27.95763 113.24241 1987 ft 200 kts 329°
2026-05-07 16:28 27.97051 113.23714 1993 ft 196 kts 355°
2026-05-07 16:28 27.98409 113.23618 2016 ft 197 kts 359°
2026-05-07 16:29 27.99780 113.23502 2018 ft 197 kts 358°
2026-05-07 16:29 28.01146 113.23411 2012 ft 197 kts 360°
2026-05-07 16:29 28.02511 113.23331 2012 ft 197 kts 359°
2026-05-07 16:29 28.03873 113.23250 2011 ft 196 kts 359°
2026-05-07 16:30 28.05236 113.23169 2005 ft 196 kts 359°
2026-05-07 16:30 28.06597 113.23087 2003 ft 196 kts 359°
2026-05-07 16:30 28.07962 113.23006 2001 ft 196 kts 359°
2026-05-07 16:30 28.09346 113.22924 1772 ft 201 kts 359°
2026-05-07 16:31 28.10718 113.22842 1501 ft 182 kts 360°
2026-05-07 16:31 28.11852 113.22778 1286 ft 150 kts 358°
2026-05-07 16:31 28.12834 113.22720 1104 ft 135 kts 357°
2026-05-07 16:31 28.13754 113.22667 912 ft 128 kts 357°
2026-05-07 16:32 28.14605 113.22624 809 ft 120 kts 356°
2026-05-07 16:32 28.15490 113.22562 628 ft 133 kts 355°
2026-05-07 16:32 28.16432 113.22511 435 ft 139 kts 356°
2026-05-07 16:32 28.17432 113.22446 282 ft 150 kts 356°
2026-05-07 16:33 28.18478 113.22375 204 ft 145 kts 356°
2026-05-07 16:33 28.19118 113.22340 208 ft 44 kts 356°
2026-05-07 16:33 28.19418 113.22321 204 ft 40 kts 356°
2026-05-07 16:33 28.19588 113.22252 211 ft 22 kts 330°
2026-05-07 16:34 28.19709 113.22171 207 ft 18 kts 330°
2026-05-07 16:34 28.19815 113.22117 205 ft 16 kts 352°
2026-05-07 16:34 28.19914 113.22108 205 ft 13 kts 356°
2026-05-07 16:34 28.20003 113.22101 205 ft 15 kts 356°
2026-05-07 16:35 28.20126 113.22091 212 ft 20 kts 356°
2026-05-07 16:35 28.20281 113.22086 206 ft 23 kts 358°
2026-05-07 16:35 28.20427 113.22078 205 ft 19 kts 356°
2026-05-07 16:35 28.20543 113.22073 206 ft 14 kts 358°
2026-05-07 16:36 28.20617 113.22040 202 ft 12 kts 279°
2026-05-07 16:36 28.20616 113.21990 195 ft 0 kts 264°
2026-05-07 16:36 28.20611 113.21918 190 ft 16 kts 271°
2026-05-07 16:37 28.20611 113.21809 189 ft 10 kts 271°
2026-05-07 16:37 28.20610 113.21749 190 ft 5 kts 268°
2026-05-07 16:37 28.20608 113.21722 190 ft 5 kts 259°
2026-05-07 16:37 28.20570 113.21684 197 ft 9 kts 188°
2026-05-07 16:38 28.20517 113.21687 195 ft 10 kts 177°
2026-05-07 16:38 28.20435 113.21692 192 ft 15 kts 178°
2026-05-07 16:38 28.20331 113.21699 197 ft 13 kts 176°
2026-05-07 16:38 28.20222 113.21706 194 ft 17 kts 178°
2026-05-07 16:39 28.20109 113.21713 201 ft 12 kts 184°
2026-05-07 16:39 28.20062 113.21674 200 ft 8 kts 252°
2026-05-07 16:39 28.20056 113.21612 207 ft 8 kts 267°
2026-05-07 16:39 28.20059 113.21552 201 ft 7 kts 294°
2026-05-07 16:40 28.20103 113.21536 201 ft 7 kts 356°
2026-05-07 16:40 28.20160 113.21532 197 ft 9 kts 356°
2026-05-07 16:40 28.20201 113.21516 196 ft 3 kts 298°
2026-05-07 16:40 28.20201 113.21490 203 ft 0 kts 266°